Theta_e
293 293 294 295 296 297 299 300 302 304 308 320 330 335 335 335 335 335 335 335 335 334 331 330 326 328 331 332 330 330 328 327
292 292 293 294 295 296 297 299 300 302 303 306 316 323 334 336 335 335 335 335 334 334 332 331 329 327 328 331 330 329 326 326
291 292 293 294 295 295 296 297 299 300 301 302 307 311 328 335 335 335 335 335 334 334 333 331 331 327 325 327 330 328 326 325
291 291 292 293 293 294 295 296 298 299 299 301 305 316 325 335 335 335 335 335 334 332 332 332 330 328 326 325 326 328 326 325
290 290 291 291 292 293 294 295 297 298 297 299 301 306 310 321 332 334 335 334 334 333 332 331 327 327 326 328 325 328 326 326
290 290 290 290 291 292 293 294 296 297 297 298 300 303 306 310 322 334 334 334 334 333 331 330 326 326 326 327 328 328 326 327
290 290 289 290 290 291 292 292 294 295 297 297 298 301 304 306 313 327 333 333 333 331 331 330 326 329 327 324 326 328 328 328
291 290 290 289 290 290 291 291 293 293 295 297 297 299 302 303 308 315 324 332 332 331 330 327 327 330 328 328 327 328 328 328
291 290 290 290 289 289 290 291 291 292 293 296 297 298 300 302 303 308 314 324 332 331 330 329 327 329 330 328 329 329 329 329
290 289 290 290 289 289 289 290 291 292 292 294 296 297 298 299 302 305 310 317 329 332 331 328 327 326 328 330 330 329 328 328
289 289 289 289 289 289 289 290 290 291 292 293 295 296 297 298 300 301 305 311 323 331 330 330 328 326 327 328 329 329 328 327
289 288 288 288 289 289 289 289 290 290 291 293 294 295 296 297 298 299 301 307 314 326 330 329 328 326 326 328 327 328 328 327
288 288 288 287 288 289 289 289 289 290 290 292 293 294 295 295 297 297 299 301 309 316 324 328 329 327 326 325 325 326 324 324
288 288 287 287 287 288 289 289 289 290 290 291 292 293 293 294 295 297 297 299 302 309 314 320 328 327 326 325 325 325 325 323
288 288 287 286 287 287 288 288 289 289 290 290 291 292 293 293 294 295 296 298 299 303 305 312 318 322 318 325 325 325 325 325
287 288 287 286 287 287 288 288 289 289 289 289 290 291 292 293 293 294 294 296 296 298 301 305 310 315 317 319 325 326 326 325
287 287 286 286 286 287 287 288 288 289 289 289 289 290 291 292 292 293 293 294 295 296 299 301 305 312 315 323 323 326 327 328
287 286 286 285 286 286 287 287 288 288 289 289 289 289 290 291 292 292 293 293 295 295 297 299 302 307 308 315 325 325 326 327
286 286 285 285 285 286 286 286 287 288 288 289 289 289 290 291 291 292 292 293 294 295 296 297 299 301 300 306 317 323 323 327
Wind_Speed
31 32 32 31 28 29 28 30 30 28 25 19 8 26 28 31 31 31 33 35 34 31 38 40 40 39 38 33 33 37 37 33
27 31 30 30 31 32 31 32 34 31 33 29 22 16 19 25 32 32 36 34 37 38 27 35 43 38 40 36 32 35 28 32
30 32 32 31 31 32 31 30 31 29 29 27 19 25 16 26 27 31 32 36 36 37 35 35 46 37 39 42 24 31 26 34
23 29 32 31 32 32 31 30 29 28 32 29 26 16 12 20 27 30 33 33 30 36 37 32 38 40 38 44 37 38 31 33
25 28 30 33 32 30 30 30 28 29 31 28 27 18 18 14 19 29 28 32 36 42 37 35 36 37 36 34 49 28 34 30
21 27 28 30 32 33 30 31 28 29 30 29 26 21 20 21 18 23 30 32 37 39 39 38 36 35 35 41 39 30 32 28
24 26 28 30 32 33 33 33 30 30 30 29 27 26 25 24 19 10 26 27 29 34 42 44 37 35 31 37 39 31 30 31
20 27 29 30 33 34 34 34 32 32 32 28 28 26 24 22 21 18 13 23 25 31 36 39 36 38 36 35 37 37 38 35
20 26 27 30 31 32 33 34 33 32 32 30 28 28 26 22 21 20 17 17 26 33 37 38 44 39 36 37 35 35 35 36
20 26 27 29 30 30 31 32 33 32 31 30 29 28 26 27 25 21 17 21 16 25 34 38 40 41 35 37 36 37 37 36
20 25 28 29 29 28 28 30 31 31 29 29 27 28 27 27 25 23 20 19 13 21 28 36 37 42 42 40 36 37 37 36
18 25 28 29 28 28 28 29 30 31 31 30 28 28 28 28 27 26 23 18 15 5 24 28 35 32 38 38 37 36 37 35
21 23 26 29 29 28 28 29 28 29 29 29 30 28 28 28 25 26 22 19 16 12 11 30 33 36 34 38 39 32 36 33
19 22 25 28 28 28 28 29 28 27 29 29 29 31 29 29 29 27 25 22 18 13 13 9 19 24 33 37 39 40 40 40
15 19 25 28 28 28 28 29 27 26 27 29 29 30 29 28 30 28 28 20 20 16 12 9 13 17 15 28 35 37 39 38
15 15 23 28 28 28 28 27 27 26 26 28 30 29 29 29 29 29 27 22 18 18 18 13 10 15 29 18 34 40 38 39
15 20 25 27 28 27 27 27 27 26 26 27 30 30 30 30 31 30 28 25 21 18 18 17 15 16 14 25 26 32 38 34
14 20 24 27 27 26 27 27 27 27 26 27 29 30 29 29 30 28 31 27 22 22 20 18 18 18 23 16 21 28 36 40
17 21 25 26 26 26 27 25 26 26 26 27 28 29 29 29 28 28 29 29 24 22 20 20 17 13 25 23 20 39 35 30
Wind_Direction
350 352 353 354 355 356 357 356 355 353 355 344 330 239 238 228 227 217 223 217 205 199 195 191 185 188 189 189 186 187 184 179
356 355 355 356 358 357 358 358 355 356 356 353 338 322 248 225 225 217 227 216 213 214 194 190 191 190 193 193 180 181 172 173
360 360 359 359 357 357 356 355 356 356 351 344 328 308 291 226 226 224 225 228 219 208 199 192 195 201 197 204 192 179 174 169
4 1 3 359 359 357 355 354 354 354 353 349 344 335 355 218 217 225 225 221 203 194 196 199 203 197 196 200 200 185 169 177
7 5 3 4 358 357 357 355 354 354 355 352 346 338 329 321 251 218 218 220 211 201 200 203 197 199 195 194 204 189 168 174
5 5 4 3 3 1 359 358 357 355 353 354 346 334 334 320 324 214 214 215 215 212 204 194 196 200 202 202 198 179 178 174
4 8 7 6 4 4 1 0 358 356 354 352 348 342 341 331 326 297 214 212 209 204 202 199 195 198 199 204 207 210 192 189
4 6 4 4 4 3 1 0 358 355 352 349 347 346 343 337 329 321 313 209 209 211 200 201 192 202 198 197 200 206 201 204
358 357 2 1 0 1 0 0 358 354 351 348 346 352 343 337 334 320 297 296 219 216 214 207 206 205 202 203 202 202 202 204
356 355 356 356 357 357 357 357 359 357 350 346 346 347 345 342 342 337 316 288 266 223 214 214 211 207 203 202 203 205 206 207
358 358 357 354 351 352 354 356 357 356 355 350 345 345 346 348 346 344 331 309 305 235 213 215 214 211 205 203 206 208 200 206
352 353 355 354 353 353 353 354 355 356 356 354 347 349 349 351 347 348 341 314 292 276 221 224 220 214 205 203 201 205 200 201
349 348 350 352 352 354 352 351 352 354 352 354 355 351 354 354 346 344 333 336 307 281 286 235 230 220 213 203 206 206 201 203
344 347 350 348 349 348 349 348 348 350 353 351 353 356 354 354 345 342 340 341 325 307 294 277 233 223 220 212 210 213 214 217
338 343 344 344 346 347 346 344 345 348 354 352 350 354 356 350 347 340 343 338 332 317 306 296 236 217 263 239 222 215 217 216
335 339 341 343 344 345 346 345 346 348 354 354 349 349 355 357 348 343 338 339 338 331 320 306 274 253 246 249 235 228 219 218
329 335 342 342 342 343 343 344 346 351 354 355 348 348 353 357 350 346 343 341 345 346 339 324 311 294 319 265 249 236 224 213
328 333 339 339 340 343 343 343 346 350 352 355 350 348 353 354 349 345 350 347 347 353 354 342 333 332 319 312 254 233 241 221
325 332 337 337 337 341 340 343 345 348 349 350 349 349 352 354 349 347 349 350 353 359 356 358 354 351 347 336 270 236 232 231